K4AVM-13 Weather Reports


Display with metric or nautical units.
time (UTC)temp
F
wind
direction
speed
MPH
gust
MPH
rain 1hr
in
rain 24hr
in
rain mn
in
humidity
%
barometer
mb
20260905071852 70 270 0.0 0.0 0.00 0.00 0.00 99 1012.7
20260905071349 70 267 0.0 0.0 0.00 0.00 0.00 99 1012.7
20260905070843 70 266 0.0 0.0 0.00 0.00 0.00 99 1012.7
20260905070339 70 258 0.0 0.0 0.00 0.00 0.00 99 1012.7
20260905065838 70 257 0.0 0.0 0.00 0.00 0.00 99 1012.8
20260905065337 71 256 0.0 0.0 0.00 0.00 0.00 99 1013.1
20260905064832 70 259 0.0 0.0 0.00 0.00 0.00 99 1012.8
20260905064328 71 266 0.0 0.0 0.00 0.00 0.00 99 1012.9
20260905063826 71 250 0.0 0.0 0.00 0.00 0.00 99 1012.9
20260905063322 71 255 0.0 0.0 0.00 0.00 0.00 99 1013.2
20260905062819 71 248 0.0 0.0 0.00 0.00 0.00 99 1013.1
20260905062313 71 266 0.0 0.0 0.00 0.00 0.00 99 1013.1
20260905061808 71 272 0.0 0.0 0.00 0.00 0.00 99 1013.3
20260905061308 71 250 0.0 0.0 0.00 0.00 0.00 99 1013.2
20260905060802 71 258 0.0 0.0 0.00 0.00 0.00 99 1013.5
20260905060259 71 263 0.0 0.0 0.00 0.00 0.00 99 1013.4
20260905055757 71 263 0.0 0.0 0.00 0.00 0.00 99 1013.6
20260905055252 71 267 0.0 0.0 0.00 0.00 0.00 99 1013.6
20260905054747 71 256 0.0 0.0 0.00 0.00 0.00 99 1013.6
20260905054239 71 250 0.0 0.0 0.00 0.00 0.00 99 1013.7
20260905053737 71 248 0.0 0.0 0.00 0.00 0.00 99 1013.8
20260905053233 71 257 0.0 1.0 0.00 0.00 0.00 99 1013.9
20260905052732 71 253 0.0 0.0 0.00 0.00 0.00 99 1014.0
20260905052227 71 254 0.0 0.0 0.00 0.00 0.00 99 1014.2
20260905051726 71 263 0.0 0.0 0.00 0.00 0.00 99 1014.6
20260905051223 71 247 0.0 0.0 0.00 0.00 0.00 99 1014.4
20260905050720 71 256 0.0 0.0 0.00 0.00 0.00 99 1014.4
20260905050216 71 254 0.0 0.0 0.00 0.00 0.00 99 1014.5
20260905045715 71 259 0.0 0.0 0.00 0.00 0.00 99 1014.3
20260905045211 71 264 0.0 0.0 0.00 0.00 0.00 99 1014.7
20260905044706 71 266 0.0 0.0 0.00 0.00 0.00 99 1014.7
20260905044202 71 266 0.0 0.0 0.00 0.00 0.00 99 1014.8
20260905043700 71 266 0.0 0.0 0.00 0.00 0.00 99 1014.7
20260905043155 71 263 0.0 0.0 0.00 0.00 0.00 99 1014.8
20260905042654 72 256 0.0 0.0 0.00 0.00 0.00 99 1014.9
20260905042148 72 257 0.0 0.0 0.00 0.00 0.00 99 1014.9
20260905041644 72 254 0.0 0.0 0.00 0.00 0.00 99 1014.9
20260905041139 72 254 0.0 0.0 0.00 0.00 0.00 99 1015.0
20260905040634 72 250 0.0 0.0 0.00 0.00 0.00 99 1015.0
20260905040133 72 256 0.0 0.0 0.00 0.71 0.71 99 1014.9
20260905035628 72 250 0.0 0.0 0.00 0.71 0.71 99 1014.9
20260905035125 72 190 1.0 2.0 0.00 0.71 0.71 99 1014.9
20260905034620 72 254 0.0 1.0 0.00 0.71 0.71 99 1015.0
20260905034120 72 258 0.0 0.0 0.00 0.71 0.71 99 1015.2
20260905033614 72 245 0.0 0.0 0.00 0.71 0.71 99 1015.2
20260905033110 72 250 0.0 0.0 0.00 0.71 0.71 99 1015.1
20260905032609 72 261 0.0 0.0 0.00 0.71 0.71 99 1015.0
20260905032104 72 242 0.0 0.0 0.00 0.71 0.71 99 1015.1
20260905031600 72 264 0.0 0.0 0.00 0.71 0.71 99 1014.9
20260905031100 72 256 0.0 0.0 0.00 0.71 0.71 99 1014.8
20260905030555 73 259 0.0 0.0 0.00 0.71 0.71 99 1014.9
20260905030050 73 250 0.0 0.0 0.00 0.71 0.71 99 1014.8
20260905025545 73 255 0.0 0.0 0.00 0.71 0.71 99 1014.9
20260905025041 73 258 0.0 0.0 0.00 0.71 0.71 99 1015.0
20260905024536 73 267 0.0 0.0 0.00 0.71 0.71 99 1015.3
20260905024032 73 260 0.0 0.0 0.00 0.71 0.71 99 1015.2
20260905023527 73 243 0.0 1.0 0.00 0.71 0.71 99 1015.2
20260905023026 73 255 0.0 1.0 0.00 0.71 0.71 99 1015.1
20260905022521 73 256 0.0 0.0 0.00 0.71 0.71 99 1015.0
20260905022016 73 259 0.0 0.0 0.00 0.71 0.71 99 1015.0
20260905021516 73 250 0.0 0.0 0.00 0.71 0.71 99 1015.2
20260905021011 73 250 0.0 0.0 0.00 0.71 0.71 99 1015.4
20260905020511 73 258 0.0 0.0 0.00 0.71 0.71 99 1015.3
20260905020007 73 254 0.0 0.0 0.00 0.71 0.71 99 1014.9
20260905015504 73 250 0.0 0.0 0.00 0.71 0.71 99 1015.1
20260905015004 73 259 0.0 0.0 0.00 0.71 0.71 99 1015.0
20260905014459 73 250 0.0 0.0 0.00 0.71 0.71 99 1015.3
20260905013954 73 247 0.0 0.0 0.00 0.71 0.71 99 1015.2
20260905013450 73 255 0.0 0.0 0.00 0.71 0.71 99 1014.9
20260905012946 73 254 0.0 0.0 0.00 0.71 0.71 99 1014.6
20260905012440 73 254 0.0 0.0 0.00 0.71 0.71 99 1014.8
20260905011937 73 250 0.0 1.0 0.00 0.71 0.71 99 1014.6
20260905011433 73 247 0.0 0.0 0.00 0.71 0.71 99 1014.5
20260905010928 73 219 0.0 0.0 0.00 0.71 0.71 99 1014.4
20260905010423 73 247 0.0 0.0 0.00 0.71 0.71 99 1014.2
20260905005919 73 247 0.0 0.0 0.00 0.71 0.71 99 1014.2
20260905005415 73 250 0.0 0.0 0.00 0.71 0.71 99 1014.4
20260905004910 73 264 0.0 0.0 0.00 0.71 0.71 99 1014.0
20260905004410 73 117 2.0 2.0 0.00 0.71 0.71 99 1014.0
20260905003905 73 258 0.0 0.0 0.00 0.71 0.71 99 1014.2
20260905003400 73 259 0.0 0.0 0.00 0.71 0.71 99 1014.4
20260905002856 73 248 0.0 0.0 0.00 0.71 0.71 99 1013.7
20260905002350 73 256 0.0 0.0 0.00 0.71 0.71 99 1013.9
20260905001845 73 256 0.0 0.0 0.00 0.71 0.71 99 1013.8
20260905001344 73 260 0.0 0.0 0.00 0.71 0.71 99 1013.8
20260905000839 73 247 0.0 0.0 0.00 0.71 0.71 99 1013.9
20260905000335 73 219 0.0 1.0 0.00 0.71 0.71 99 1013.6
20260904235831 73 262 0.0 0.0 0.00 0.71 0.71 99 1013.5
20260904235326 73 343 1.0 1.0 0.00 0.71 0.71 99 1013.3
20260904234821 73 267 0.0 0.0 0.07 0.71 0.71 99 1013.5
20260904234321 73 239 0.0 1.0 0.07 0.71 0.71 99 1013.2
20260904233817 73 226 0.0 2.0 0.00 0.70 0.70 99 1013.4
20260904233313 73 198 0.0 1.0 0.00 0.70 0.70 99 1014.0
20260904232809 74 250 2.0 2.0 0.00 0.70 0.70 99 1014.3
20260904232307 74 210 0.0 0.0 0.00 0.70 0.70 99 1014.4
20260904231801 73 257 0.0 0.0 0.00 0.70 0.70 99 1014.5
20260904231255 74 227 0.0 0.0 0.00 0.70 0.70 99 1014.5
20260904230751 74 239 0.0 0.0 0.00 0.70 0.70 99 1014.8
20260904230249 73 246 0.0 1.0 0.00 0.70 0.70 99 1015.0
20260904225744 74 230 0.0 1.0 0.00 0.70 0.70 99 1015.0
20260904225238 73 244 0.0 0.0 0.00 0.70 0.70 99 1015.1
20260904224737 73 235 0.0 1.0 0.00 0.70 0.70 99 1015.1
20260904224233 73 244 0.0 1.0 0.00 0.70 0.70 99 1015.1
20260904223732 73 234 0.0 0.0 0.00 0.70 0.70 99 1015.5
20260904223227 73 259 0.0 0.0 0.00 0.70 0.70 99 1015.1
20260904222723 73 336 1.0 6.0 0.05 0.70 0.70 99 1015.2
20260904222218 73 296 1.0 1.0 0.17 0.70 0.70 99 1015.1
20260904221718 73 246 1.0 2.0 0.19 0.69 0.69 99 1015.2
20260904221213 73 237 0.0 2.0 0.07 0.67 0.67 99 1015.0
20260904220707 73 160 1.0 1.0 0.07 0.66 0.66 99 1015.0
20260904220202 72 140 1.0 4.0 0.31 0.66 0.66 99 1015.2
20260904215702 72 225 1.0 2.0 1.37 0.65 0.65 99 1015.1
20260904215158 72 4 2.0 3.0 1.68 0.57 0.57 99 1015.2
20260904214653 73 256 3.0 17.0 2.03 0.39 0.39 98 1015.8
20260904214148 75 168 3.0 19.0 1.68 0.28 0.28 96 1015.4
20260904213646 83 265 6.0 10.0 0.26 0.04 0.04 85 1014.2
20260904213143 91 252 1.0 1.0 0.00 0.00 0.00 69 1014.2
20260904212638 91 231 0.0 0.0 0.00 0.00 0.00 67 1013.3
20260904212133 92 231 0.0 0.0 0.00 0.00 0.00 64 1013.2
20260904211632 92 231 0.0 1.0 0.00 0.00 0.00 63 1013.0
20260904211127 93 297 0.0 1.0 0.00 0.00 0.00 61 1013.2
20260904210621 94 240 0.0 0.0 0.00 0.00 0.00 60 1013.1
20260904210117 94 229 0.0 1.0 0.00 0.00 0.00 58 1013.0
20260904205607 94 240 0.0 0.0 0.00 0.00 0.00 59 1013.1
20260904205103 94 298 0.0 1.0 0.00 0.00 0.00 58 1013.1
20260904204559 95 326 2.0 3.0 0.00 0.00 0.00 56 1013.0
20260904204055 96 227 0.0 2.0 0.00 0.00 0.00 55 1013.1
20260904203550 96 277 1.0 2.0 0.00 0.00 0.00 55 1012.9
20260904203047 95 66 1.0 1.0 0.00 0.00 0.00 59 1013.1
20260904202542 94 314 0.0 0.0 0.00 0.00 0.00 58 1013.0
20260904202038 95 271 0.0 1.0 0.00 0.00 0.00 57 1012.9
20260904201533 95 108 0.0 1.0 0.00 0.00 0.00 58 1012.8
20260904201028 95 172 0.0 1.0 0.00 0.00 0.00 57 1012.9
20260904200527 95 229 0.0 1.0 0.00 0.00 0.00 56 1013.1
20260904200023 96 227 0.0 1.0 0.00 0.00 0.00 56 1013.1
20260904195521 96 231 0.0 0.0 0.00 0.00 0.00 54 1013.4
20260904195020 96 30 0.0 2.0 0.00 0.00 0.00 54 1013.5
20260904194515 97 225 0.0 1.0 0.00 0.00 0.00 54 1013.6
20260904194010 98 224 0.0 1.0 0.00 0.00 0.00 52 1013.5
20260904193505 98 223 1.0 2.0 0.00 0.00 0.00 52 1013.6
20260904193002 98 235 0.0 2.0 0.00 0.00 0.00 55 1013.8
20260904192501 98 246 1.0 1.0 0.00 0.00 0.00 52 1013.6
20260904191957 98 219 2.0 2.0 0.00 0.00 0.00 53 1013.8
20260904191453 98 230 0.0 2.0 0.00 0.00 0.00 53 1013.9
20260904190950 98 236 0.0 3.0 0.00 0.00 0.00 52 1014.0
20260904190445 98 23 1.0 2.0 0.00 0.00 0.00 53 1014.2
20260904185941 97 233 2.0 2.0 0.00 0.00 0.00 53 1014.1
20260904185437 98 243 1.0 1.0 0.00 0.00 0.00 54 1014.3
20260904184936 97 208 1.0 2.0 0.00 0.00 0.00 53 1014.3
20260904184431 98 237 0.0 1.0 0.00 0.00 0.00 53 1014.4
20260904183927 98 8 2.0 3.0 0.00 0.00 0.00 52 1014.8
20260904183422 98 228 2.0 3.0 0.00 0.00 0.00 55 1014.6
20260904182917 97 200 0.0 1.0 0.00 0.00 0.00 55 1014.5
20260904182412 97 230 0.0 1.0 0.00 0.00 0.00 55 1014.9
20260904181907 97 205 1.0 2.0 0.00 0.00 0.00 57 1014.7
20260904181402 96 219 0.0 1.0 0.00 0.00 0.00 57 1014.8
20260904180857 96 229 0.0 1.0 0.00 0.00 0.00 55 1014.8
20260904180353 97 228 1.0 1.0 0.00 0.00 0.00 56 1014.8
20260904175852 95 235 0.0 1.0 0.00 0.00 0.00 58 1015.0
20260904175350 96 239 1.0 2.0 0.00 0.00 0.00 59 1015.3
20260904174844 96 241 0.0 1.0 0.00 0.00 0.00 56 1015.1
20260904174341 99 310 0.0 1.0 0.00 0.00 0.00 55 1015.3
20260904173837 97 178 0.0 1.0 0.00 0.00 0.00 58 1015.3
20260904173332 96 198 1.0 2.0 0.00 0.00 0.00 57 1015.4
20260904172828 95 215 0.0 1.0 0.00 0.00 0.00 59 1015.4
20260904172327 95 235 1.0 3.0 0.00 0.00 0.00 60 1015.3
20260904171822 95 324 0.0 1.0 0.00 0.00 0.00 59 1015.3
20260904171317 96 288 2.0 3.0 0.00 0.00 0.00 59 1015.5
20260904170814 97 231 0.0 2.0 0.00 0.00 0.00 56 1015.4
20260904170309 96 227 0.0 1.0 0.00 0.00 0.00 58 1015.3
20260904165808 95 255 0.0 0.0 0.00 0.00 0.00 58 1015.4
20260904165305 95 237 1.0 2.0 0.00 0.00 0.00 60 1015.3
20260904164756 96 215 0.0 1.0 0.00 0.00 0.00 60 1015.4
20260904164252 94 153 1.0 2.0 0.00 0.00 0.00 59 1015.4
20260904163748 96 239 1.0 3.0 0.00 0.00 0.00 61 1015.6
20260904163243 95 251 1.0 4.0 0.00 0.00 0.00 59 1015.7
20260904162742 94 339 2.0 3.0 0.00 0.00 0.00 60 1015.6
20260904162237 95 191 1.0 3.0 0.00 0.00 0.00 62 1015.7
20260904161733 94 99 2.0 3.0 0.00 0.00 0.00 60 1015.7
20260904161232 95 258 2.0 3.0 0.00 0.00 0.00 62 1015.7
20260904160728 94 207 1.0 2.0 0.00 0.00 0.00 60 1015.8
20260904160224 94 245 0.0 4.0 0.00 0.00 0.00 60 1016.1
20260904155724 95 355 4.0 6.0 0.00 0.00 0.00 59 1015.9
20260904155223 94 4 2.0 2.0 0.00 0.00 0.00 60 1015.9
20260904154721 94 25 2.0 4.0 0.00 0.00 0.00 61 1015.8
20260904154216 94 4 3.0 8.0 0.00 0.00 0.00 60 1016.0
20260904153712 95 358 4.0 6.0 0.00 0.00 0.00 60 1015.9
20260904153207 95 214 0.0 2.0 0.00 0.00 0.00 60 1015.8
20260904152704 94 189 1.0 2.0 0.00 0.00 0.00 61 1015.9
20260904152159 95 143 2.0 7.0 0.00 0.00 0.00 60 1015.9
20260904151654 94 234 3.0 3.0 0.00 0.00 0.00 61 1015.8
20260904151152 94 271 1.0 3.0 0.00 0.00 0.00 62 1015.9
20260904150648 94 245 0.0 1.0 0.00 0.00 0.00 64 1015.9
20260904150144 93 237 1.0 3.0 0.00 0.00 0.00 65 1015.8
20260904145642 93 262 1.0 2.0 0.00 0.00 0.00 64 1015.8
20260904145137 92 60 2.0 4.0 0.00 0.00 0.00 66 1015.7
20260904144633 92 233 0.0 2.0 0.00 0.00 0.00 69 1015.8
20260904144128 92 154 1.0 2.0 0.00 0.00 0.00 66 1015.7
20260904143624 91 235 1.0 2.0 0.00 0.00 0.00 68 1015.7
20260904143120 91 220 2.0 2.0 0.00 0.00 0.00 67 1015.8
20260904142617 90 221 1.0 3.0 0.00 0.00 0.00 69 1015.7
20260904142112 91 217 1.0 1.0 0.00 0.00 0.00 69 1015.7
20260904141607 91 137 0.0 1.0 0.00 0.00 0.00 69 1015.7
20260904141102 89 171 0.0 1.0 0.00 0.00 0.00 73 1015.5
20260904140558 90 225 1.0 1.0 0.00 0.00 0.00 71 1015.8
20260904140052 89 224 0.0 2.0 0.00 0.00 0.00 73 1015.6
20260904135551 89 237 1.0 2.0 0.00 0.00 0.00 71 1015.6
20260904135048 89 183 1.0 3.0 0.00 0.00 0.00 72 1015.6
20260904134542 88 159 1.0 2.0 0.00 0.00 0.00 72 1015.6
20260904134036 88 223 1.0 2.0 0.00 0.00 0.00 73 1015.5
20260904133531 88 226 1.0 2.0 0.00 0.00 0.00 73 1015.3
20260904133027 87 215 1.0 1.0 0.00 0.00 0.00 74 1015.4
20260904132522 86 195 1.0 2.0 0.00 0.00 0.00 77 1015.4
20260904132021 86 224 2.0 2.0 0.00 0.00 0.00 76 1015.3
20260904131516 86 224 1.0 2.0 0.00 0.00 0.00 77 1015.5
20260904131012 86 223 1.0 1.0 0.00 0.00 0.00 78 1015.4
20260904130511 85 223 1.0 2.0 0.00 0.00 0.00 78 1015.4
20260904130006 85 218 2.0 2.0 0.00 0.00 0.00 78 1015.6
20260904125503 85 225 1.0 1.0 0.00 0.00 0.00 80 1015.6
20260904124956 84 227 1.0 1.0 0.00 0.00 0.00 80 1015.5
20260904124452 84 223 2.0 2.0 0.00 0.00 0.00 80 1015.6
20260904123948 84 222 0.0 1.0 0.00 0.00 0.00 81 1015.6
20260904123442 83 228 0.0 1.0 0.00 0.00 0.00 82 1015.8
20260904122938 83 305 0.0 1.0 0.00 0.00 0.00 82 1015.5
20260904122437 83 210 0.0 1.0 0.00 0.00 0.00 83 1015.5
20260904121932 82 217 0.0 0.0 0.00 0.00 0.00 85 1015.7
20260904121428 82 213 0.0 1.0 0.00 0.00 0.00 86 1015.9
20260904120925 81 176 0.0 0.0 0.00 0.00 0.00 86 1015.8
20260904120420 80 222 0.0 0.0 0.00 0.00 0.00 90 1015.6
20260904115915 79 209 0.0 0.0 0.00 0.00 0.00 92 1015.6
20260904115410 78 210 0.0 1.0 0.00 0.00 0.00 93 1015.5
20260904114905 77 220 0.0 0.0 0.00 0.00 0.00 95 1015.4
20260904114359 76 203 0.0 0.0 0.00 0.00 0.00 97 1015.6
20260904113855 75 215 0.0 0.0 0.00 0.00 0.00 98 1015.7
20260904113354 75 214 0.0 0.0 0.00 0.00 0.00 98 1015.5
20260904112854 75 176 0.0 0.0 0.00 0.00 0.00 98 1015.5
20260904112349 75 215 0.0 0.0 0.00 0.00 0.00 98 1015.6
20260904111846 74 235 0.0 0.0 0.00 0.00 0.00 98 1015.6
20260904111341 74 235 0.0 0.0 0.00 0.00 0.00 98 1015.5
20260904110837 74 290 0.0 0.0 0.00 0.00 0.00 98 1015.6
20260904110335 73 233 0.0 0.0 0.00 0.00 0.00 98 1015.6
20260904105830 73 233 0.0 0.0 0.00 0.00 0.00 98 1015.5
20260904105325 73 245 0.0 0.0 0.00 0.00 0.00 98 1015.6
20260904104820 73 249 0.0 0.0 0.00 0.00 0.00 98 1015.6
20260904104315 73 250 0.0 0.0 0.00 0.00 0.00 97 1015.5
20260904103813 74 250 0.0 0.0 0.00 0.00 0.00 97 1015.6
20260904103312 74 250 0.0 0.0 0.00 0.00 0.00 97 1015.6
20260904102808 74 244 0.0 0.0 0.00 0.00 0.00 97 1015.4
20260904102306 74 242 0.0 0.0 0.00 0.00 0.00 97 1015.5
20260904101759 74 242 0.0 0.0 0.00 0.00 0.00 97 1015.3
20260904101255 74 242 0.0 0.0 0.00 0.00 0.00 96 1015.4
20260904100751 74 242 0.0 0.0 0.00 0.00 0.00 96 1015.4
20260904100247 74 242 0.0 0.0 0.00 0.00 0.00 96 1015.5
20260904095746 74 242 0.0 0.0 0.00 0.00 0.00 96 1015.6
20260904095241 74 242 0.0 0.0 0.00 0.00 0.00 96 1015.6
20260904094736 74 242 0.0 0.0 0.00 0.00 0.00 95 1015.3
20260904094231 74 242 0.0 0.0 0.00 0.00 0.00 95 1015.6
20260904093728 75 242 0.0 0.0 0.00 0.00 0.00 95 1015.4
20260904093227 75 242 0.0 0.0 0.00 0.00 0.00 94 1015.6
20260904092723 75 239 0.0 0.0 0.00 0.00 0.00 94 1015.6
20260904092219 75 239 0.0 0.0 0.00 0.00 0.00 93 1015.8
20260904091715 75 238 0.0 0.0 0.00 0.00 0.00 93 1015.7
20260904091209 76 247 0.0 0.0 0.00 0.00 0.00 93 1015.9
20260904090705 76 242 0.0 0.0 0.00 0.00 0.00 92 1015.7
20260904090201 76 242 0.0 0.0 0.00 0.00 0.00 91 1015.8
20260904085655 76 248 0.0 0.0 0.00 0.00 0.00 91 1015.8
20260904085150 76 248 0.0 0.0 0.00 0.00 0.00 91 1015.8
20260904084645 76 248 0.0 0.0 0.00 0.00 0.00 91 1015.6
20260904084142 77 217 0.0 0.0 0.00 0.00 0.00 90 1015.6
20260904083638 77 217 0.0 0.0 0.00 0.00 0.00 90 1015.7
20260904083133 77 219 0.0 0.0 0.00 0.00 0.00 89 1015.5
20260904082628 77 219 0.0 0.0 0.00 0.00 0.00 89 1015.6
20260904082124 77 260 0.0 0.0 0.00 0.00 0.00 89 1015.6
20260904081619 77 217 0.0 0.0 0.00 0.00 0.00 88 1015.5
20260904081114 77 215 0.0 0.0 0.00 0.00 0.00 88 1015.5
20260904080610 77 202 0.0 0.0 0.00 0.00 0.00 88 1015.3
20260904080106 77 198 0.0 0.0 0.00 0.00 0.00 87 1015.3
20260904075601 78 339 0.0 1.0 0.00 0.00 0.00 87 1015.5
20260904075056 78 198 0.0 0.0 0.00 0.00 0.00 87 1015.3
20260904074555 78 211 0.0 0.0 0.00 0.00 0.00 86 1015.5
20260904074050 78 238 0.0 0.0 0.00 0.00 0.00 85 1015.3
20260904073545 79 254 0.0 0.0 0.00 0.00 0.00 85 1015.3
20260904073041 79 191 0.0 0.0 0.00 0.00 0.00 84 1015.3
20260904072537 79 212 0.0 2.0 0.00 0.00 0.00 84 1014.8
20260904072032 79 259 0.0 0.0 0.00 0.00 0.00 83 1015.0